Regional Weather Roundup
Issued by NWS

Home | Current Version | Previous Version | Text Only | Print | Product List | Glossary On
Versions: 1 2 3 4 5 6 7 8 9 10 11 12 13 14 15 16 17 18 19 20 21 22 23 24 25 26 27 28 29 30 31 32 33 34 35 36 37 38 39 40 41 42 43 44 45 46 47 48 49 50
259
ASUS43 KOAX 010510
RWRNE

WEATHER ROUNDUP FOR NEBRASKA
NATIONAL WEATHER SERVICE OMAHA NE
1200 AM CDT SAT OCT 01 2016

NOTES: SATELLITE DATA IS BEING USED TO AUGMENT CLOUD COVER ABOVE
       12000 FEET.
       "FAIR" INDICATES FEW OR NO CLOUDS BELOW 12,000 FEET WITH NO
       SIGNIFICANT WEATHER AND/OR OBSTRUCTIONS TO VISIBILITY.

  * THESE STATIONS DO NOT REPORT WEATHER SUCH AS RAIN...SNOW OR FOG.

NEZ001>004-019>022-054>056-010600-
NEBRASKA PANHANDLE

CITY           SKY/WX    TMP DP  RH WIND       PRES   REMARKS
SCOTTSBLUFF    CLEAR     55  47  74 E8        30.11S
ALLIANCE       CLOUDY    54  47  77 S7        30.11S
CHADRON        CLEAR     63  46  54 SW8       30.05R
KIMBALL        CLEAR     53  47  79 S6        30.17S
SIDNEY         PTCLDY    56  46  69 S9        30.16S
$$

NEZ057>060-069>072-079>082-010600-
SOUTHWEST NEBRASKA

CITY           SKY/WX    TMP DP  RH WIND       PRES   REMARKS
NORTH PLATTE   CLOUDY    54  46  74 E6        30.14S
IMPERIAL       CLOUDY    57  45  64 SE9       30.14F
LEXINGTON      MOCLDY    53  46  77 SE3       30.15F
MCCOOK         CLOUDY    54  46  74 SE8       30.15S
OGALLALA       CLOUDY    60  46  61 SE6       30.14S
$$

NEZ005>010-023>029-035>040-094-010600-
NORTH CENTRAL NEBRASKA

CITY           SKY/WX    TMP DP  RH WIND       PRES   REMARKS
VALENTINE      CLOUDY    59  44  57 S8        30.11S
AINSWORTH      PTCLDY    56  45  67 S8        30.13S
BROKEN BOW     MOCLDY    54  47  77 SE3       30.15S
O`NEILL        PTCLDY    53  45  74 SE6       30.16S
ORD            MOCLDY    51  45  79 CALM      30.15S
THEDFORD       CLOUDY    56  46  69 S7        30.14S
$$

NEZ041-046>049-061>064-073>077-083>087-010600-
SOUTH CENTRAL NEBRASKA

CITY           SKY/WX    TMP DP  RH WIND       PRES   REMARKS
GRAND ISLAND   PTCLDY    53  45  74 SE5       30.17S
AURORA         PTCLDY    52  47  82 SE3       30.17S
HASTINGS       MOCLDY    53  44  71 CALM      30.17S
HEBRON         MOCLDY    49  47  92 CALM      30.16S
HOLDREGE       CLOUDY    53  44  71 CALM      30.16S
KEARNEY *      CLOUDY    54  43  66 CALM      30.15S
YORK           CLOUDY    50  45  81 CALM      30.17S
$$

NEZ011>018-030>034-042>045-010600-
NORTHEAST NEBRASKA

CITY           SKY/WX    TMP DP  RH WIND       PRES   REMARKS
NORFOLK        PTCLDY    48  42  80 CALM      30.16S
ALBION         CLOUDY    48  45  88 CALM      30.16S
BLAIR          PTCLDY    56  53  89 SE3       30.17R
FREMONT        MOCLDY    54  49  82 CALM      30.17R
TEKAMAH        PTCLDY    50  48  93 CALM      30.17R
WAYNE          PTCLDY    47  46  93 CALM      30.17S
$$

NEZ050>053-065>068-078-088>093-010600-
SOUTHEAST NEBRASKA

CITY           SKY/WX    TMP DP  RH WIND       PRES   REMARKS
LINCOLN        PTCLDY    57  51  80 S3        30.18R
OMAHA EPPLEY   PTCLDY    59  52  77 E3        30.17R
BEATRICE       PTCLDY    57  52  84 E5        30.17R
FALLS CITY     CLEAR     55  53  93 N3        30.15S
NEBRASKA CITY  CLOUDY    56  50  80 CALM      30.16S
PLATTSMOUTH    PTCLDY    56  50  82 CALM      30.16S
$$

NEZ044-045-051>053-067-010600-
OMAHA AREA

CITY           SKY/WX    TMP DP  RH WIND       PRES   REMARKS
OMAHA EPPLEY   PTCLDY    59  52  77 E3        30.17R
BLAIR          PTCLDY    56  53  89 SE3       30.17R
FREMONT        MOCLDY    54  49  82 CALM      30.17R
MILLARD        PTCLDY    56  54  93 CALM      30.17S
OFFUTT AFB     PTCLDY    52  52 100 SE1       30.15S
PLATTSMOUTH    PTCLDY    56  50  82 CALM      30.16S
WAHOO          FAIR      53  49  86 CALM      30.17S
$$




USA.gov is the U.S. government's official web portal to all federal, state and local government web resources and services.